When you browse on this site, cookies collect data to enhance your experience and personalize the content and advertising you see.
Visit our Privacy Policy to learn more. By continuing to use the site, you agree to this use of cookies and data.

Hourly Weather Banska Bystrica

Today, 3 July, Friday

Time Temperature Precipitation Wind Pressure Humidity
00:00 +18°C° 0 mm 1 mps 707 mmHg 92%
01:00 +16°C° 0 mm 1 mps 707 mmHg 92%
02:00 +16°C° 0.1 mm 1 mps 707 mmHg 92%
03:00 +16°C° 0.1 mm 1 mps 707 mmHg 92%
04:00 +16°C° 0.1 mm 1 mps 707 mmHg 91%
05:00 +18°C° 0.2 mm 1 mps 708 mmHg 91%
06:00 +19°C° 0.2 mm 1 mps 708 mmHg 91%
07:00 +20°C° 0.2 mm 1 mps 709 mmHg 90%
08:00 +20°C° 0.4 mm 2 mps 709 mmHg 84%
09:00 +21°C° 0.4 mm 2 mps 709 mmHg 78%
10:00 +22°C° 0.4 mm 3 mps 710 mmHg 72%
11:00 +22°C° 0.1 mm 3 mps 710 mmHg 69%
12:00 +22°C° 0.1 mm 3 mps 710 mmHg 66%
13:00 +24°C° 0.1 mm 3 mps 710 mmHg 63%
14:00 +22°C° 0.3 mm 3 mps 710 mmHg 66%
15:00 +22°C° 0.3 mm 3 mps 710 mmHg 69%
16:00 +21°C° 0.3 mm 2 mps 710 mmHg 71%
17:00 +20°C° 0.1 mm 2 mps 710 mmHg 77%
18:00 +19°C° 0.1 mm 2 mps 710 mmHg 82%
19:00 +18°C° 0.1 mm 2 mps 710 mmHg 87%
20:00 +17°C° 0 mm 2 mps 710 mmHg 90%
21:00 +16°C° 0 mm 2 mps 710 mmHg 93%
22:00 +15°C° 0 mm 2 mps 710 mmHg 96%
23:00 +15°C° 0 mm 2 mps 711 mmHg 96%

Tomorrow, 4 July, Saturday

Time Temperature Precipitation Wind Pressure Humidity
00:00 +14°C° 0 mm 2 mps 711 mmHg 96%
01:00 +14°C° 0 mm 2 mps 711 mmHg 96%
02:00 +14°C° 0 mm 1 mps 711 mmHg 95%
03:00 +14°C° 0 mm 1 mps 711 mmHg 94%
04:00 +14°C° 0 mm 1 mps 711 mmHg 93%
05:00 +16°C° 0 mm 1 mps 711 mmHg 89%
06:00 +18°C° 0 mm 1 mps 712 mmHg 85%
07:00 +19°C° 0 mm 1 mps 712 mmHg 80%
08:00 +21°C° 0 mm 1 mps 712 mmHg 73%
09:00 +23°C° 0 mm 1 mps 713 mmHg 66%
10:00 +25°C° 0 mm 1 mps 713 mmHg 58%
11:00 +25°C° 0.3 mm 1 mps 713 mmHg 59%
12:00 +25°C° 0.3 mm 1 mps 713 mmHg 60%
13:00 +25°C° 0.3 mm 1 mps 712 mmHg 60%
14:00 +25°C° 0.5 mm 1 mps 712 mmHg 63%
15:00 +24°C° 0.5 mm 1 mps 712 mmHg 66%
16:00 +24°C° 0.5 mm 1 mps 712 mmHg 69%
17:00 +23°C° 0.1 mm 1 mps 711 mmHg 74%
18:00 +22°C° 0.1 mm 1 mps 711 mmHg 79%
19:00 +20°C° 0.1 mm 1 mps 711 mmHg 84%
20:00 +19°C° 0 mm 1 mps 711 mmHg 86%
21:00 +18°C° 0 mm 1 mps 711 mmHg 88%
22:00 +16°C° 0 mm 1 mps 711 mmHg 90%
23:00 +15°C° 0 mm 1 mps 711 mmHg 90%

Day after tomorrow, 5 July, Sunday

Time Temperature Precipitation Wind Pressure Humidity
00:00 +14°C° 0 mm 1 mps 711 mmHg 90%
01:00 +14°C° 0 mm 1 mps 711 mmHg 91%
02:00 +14°C° 0 mm 1 mps 711 mmHg 91%
03:00 +13°C° 0 mm 1 mps 711 mmHg 91%
04:00 +13°C° 0 mm 1 mps 711 mmHg 91%
05:00 +15°C° 0 mm 1 mps 711 mmHg 85%
06:00 +18°C° 0 mm 1 mps 711 mmHg 79%
07:00 +20°C° 0 mm 1 mps 712 mmHg 73%
08:00 +22°C° 0 mm 1 mps 712 mmHg 64%
09:00 +23°C° 0 mm 1 mps 712 mmHg 54%
10:00 +25°C° 0 mm 2 mps 712 mmHg 45%
11:00 +26°C° 0 mm 2 mps 712 mmHg 45%
12:00 +26°C° 0 mm 2 mps 712 mmHg 44%
13:00 +27°C° 0 mm 3 mps 712 mmHg 44%
14:00 +27°C° 0 mm 3 mps 712 mmHg 47%
15:00 +27°C° 0 mm 3 mps 711 mmHg 50%
16:00 +27°C° 0 mm 3 mps 711 mmHg 53%
17:00 +25°C° 0 mm 2 mps 711 mmHg 63%
18:00 +23°C° 0 mm 2 mps 710 mmHg 72%
19:00 +22°C° 0 mm 1 mps 710 mmHg 82%
20:00 +21°C° 0 mm 1 mps 710 mmHg 85%
21:00 +19°C° 0 mm 1 mps 710 mmHg 89%
22:00 +18°C° 0 mm 1 mps 710 mmHg 92%
23:00 +18°C° 0 mm 1 mps 710 mmHg 93%

6 July, Monday

Time Temperature Precipitation Wind Pressure Humidity
00:00 +18°C° 0 mm 1 mps 710 mmHg 93%
01:00 +16°C° 0 mm 1 mps 710 mmHg 94%
02:00 +16°C° 0 mm 1 mps 710 mmHg 94%
03:00 +16°C° 0 mm 1 mps 709 mmHg 94%
04:00 +16°C° 0 mm 1 mps 709 mmHg 94%
05:00 +19°C° 0 mm 1 mps 709 mmHg 88%
06:00 +20°C° 0 mm 1 mps 710 mmHg 81%
07:00 +22°C° 0 mm 1 mps 710 mmHg 74%
08:00 +24°C° 0 mm 1 mps 710 mmHg 68%
09:00 +25°C° 0 mm 1 mps 710 mmHg 62%
10:00 +27°C° 0 mm 1 mps 710 mmHg 56%
11:00 +27°C° 0 mm 2 mps 710 mmHg 55%
12:00 +27°C° 0 mm 2 mps 709 mmHg 54%
13:00 +28°C° 0 mm 2 mps 709 mmHg 53%
14:00 +27°C° 0 mm 2 mps 709 mmHg 54%
15:00 +27°C° 0 mm 3 mps 708 mmHg 55%
16:00 +27°C° 0 mm 3 mps 708 mmHg 56%
17:00 +25°C° 0 mm 2 mps 708 mmHg 64%
18:00 +24°C° 0 mm 2 mps 708 mmHg 72%
19:00 +22°C° 0 mm 1 mps 707 mmHg 80%
20:00 +20°C° 0 mm 2 mps 707 mmHg 84%
21:00 +18°C° 0 mm 2 mps 708 mmHg 88%
22:00 +17°C° 0 mm 2 mps 708 mmHg 91%
23:00 +17°C° 0 mm 2 mps 708 mmHg 93%

7 July, Tuesday

Time Temperature Precipitation Wind Pressure Humidity
00:00 +16°C° 0 mm 2 mps 708 mmHg 94%
01:00 +16°C° 0 mm 2 mps 709 mmHg 95%
02:00 +15°C° 0.1 mm 2 mps 709 mmHg 92%
03:00 +15°C° 0.1 mm 2 mps 709 mmHg 89%
04:00 +14°C° 0.1 mm 3 mps 709 mmHg 86%
05:00 +13°C° 0.1 mm 3 mps 709 mmHg 85%
06:00 +13°C° 0.1 mm 3 mps 710 mmHg 83%
07:00 +13°C° 0.1 mm 4 mps 710 mmHg 81%
08:00 +12°C° 0.2 mm 4 mps 710 mmHg 83%
09:00 +12°C° 0.2 mm 3 mps 710 mmHg 84%
10:00 +12°C° 0.2 mm 3 mps 710 mmHg 86%
11:00 +11°C° 0.8 mm 3 mps 710 mmHg 89%
12:00 +11°C° 0.8 mm 3 mps 710 mmHg 92%
13:00 +10°C° 0.8 mm 3 mps 710 mmHg 95%
14:00 +12°C° 0.3 mm 2 mps 710 mmHg 88%
15:00 +13°C° 0.3 mm 2 mps 711 mmHg 82%
16:00 +14°C° 0.3 mm 2 mps 711 mmHg 76%
17:00 +14°C° 0 mm 2 mps 711 mmHg 78%
18:00 +14°C° 0 mm 2 mps 711 mmHg 80%
19:00 +13°C° 0 mm 2 mps 711 mmHg 82%
20:00 +12°C° 0 mm 2 mps 711 mmHg 87%
21:00 +10°C° 0 mm 2 mps 712 mmHg 91%
22:00 +10°C° 0 mm 1 mps 712 mmHg 95%
23:00 +9°C° 0 mm 1 mps 712 mmHg 95%

8 July, Wednesday

Time Temperature Precipitation Wind Pressure Humidity
00:00 +9°C° 0 mm 1 mps 712 mmHg 95%
01:00 +8°C° 0 mm 1 mps 712 mmHg 96%
02:00 +8°C° 0 mm 1 mps 712 mmHg 95%
03:00 +6°C° 0 mm 2 mps 712 mmHg 95%
04:00 +6°C° 0 mm 2 mps 712 mmHg 95%
05:00 +8°C° 0 mm 2 mps 712 mmHg 86%
06:00 +10°C° 0 mm 2 mps 713 mmHg 78%
07:00 +13°C° 0 mm 2 mps 713 mmHg 69%
08:00 +15°C° 0 mm 2 mps 713 mmHg 63%
09:00 +16°C° 0 mm 2 mps 714 mmHg 56%
10:00 +18°C° 0 mm 2 mps 714 mmHg 49%
11:00 +19°C° 0 mm 2 mps 714 mmHg 47%
12:00 +19°C° 0 mm 2 mps 714 mmHg 45%
13:00 +20°C° 0 mm 2 mps 714 mmHg 43%
14:00 +20°C° 0 mm 2 mps 714 mmHg 44%
15:00 +20°C° 0 mm 2 mps 714 mmHg 46%
16:00 +20°C° 0 mm 2 mps 714 mmHg 47%
17:00 +18°C° 0 mm 2 mps 714 mmHg 56%
18:00 +16°C° 0 mm 2 mps 713 mmHg 65%
19:00 +15°C° 0 mm 1 mps 713 mmHg 74%
20:00 +13°C° 0 mm 1 mps 713 mmHg 77%
21:00 +12°C° 0 mm 1 mps 713 mmHg 81%
22:00 +11°C° 0 mm 1 mps 714 mmHg 84%
23:00 +10°C° 0 mm 1 mps 714 mmHg 85%
Show more